K4DFD-13 Weather Reports


time (UTC)temp
C
wind
direction
speed
KPH
gust
KPH
rain 1hr
cm
rain 24hr
cm
rain mn
cm
humidity
%
barometer
mb
20260508121626 10 252 1.6 3.2 0.00 0.13 0.00 65 1016.9
20260508121125 10 337 0.0 0.0 0.00 0.13 0.00 68 1016.8
20260508120625 9 313 0.0 1.6 0.00 0.18 0.00 71 1016.8
20260508120125 9 66 1.6 3.2 0.00 0.18 0.00 71 1016.8
20260508115624 8 65 0.0 0.0 0.00 0.18 0.00 73 1016.7
20260508115124 8 49 0.0 1.6 0.00 0.18 0.00 74 1016.7
20260508114626 7 74 0.0 0.0 0.00 0.18 0.00 73 1016.7
20260508114123 7 84 0.0 1.6 0.00 0.18 0.00 74 1016.7
20260508113623 7 0 0.0 0.0 0.00 0.18 0.00 73 1016.7
20260508113122 6 85 0.0 0.0 0.00 0.18 0.00 75 1016.6
20260508112622 6 312 0.0 1.6 0.00 0.18 0.00 77 1016.7
20260508112122 6 76 1.6 1.6 0.00 0.18 0.00 78 1016.8
20260508111621 6 10 0.0 0.0 0.00 0.18 0.00 77 1016.8
20260508111121 6 0 0.0 0.0 0.00 0.18 0.00 75 1016.7
20260508110620 6 308 3.2 3.2 0.00 0.18 0.00 72 1016.6
20260508110120 6 310 4.8 6.4 0.00 0.18 0.00 71 1016.6
20260508105620 6 291 4.8 6.4 0.00 0.18 0.00 72 1016.6
20260508105119 6 280 4.8 6.4 0.00 0.18 0.00 72 1016.6
20260508104619 6 293 6.4 6.4 0.00 0.18 0.00 72 1016.6
20260508104119 6 309 4.8 4.8 0.00 0.18 0.00 72 1016.7
20260508103618 6 314 6.4 6.4 0.00 0.18 0.00 72 1016.6
20260508103121 6 311 4.8 4.8 0.00 0.18 0.00 72 1016.6
20260508102618 6 313 4.8 6.4 0.00 0.18 0.00 72 1016.6
20260508102118 5 322 4.8 4.8 0.00 0.18 0.00 74 1016.7
20260508101839 6 296 3.2 3.2 0.00 0.08 0.00 74 1016.6
20260508101637 5 321 4.8 4.8 0.00 0.18 0.00 74 1016.6
20260508101117 5 306 4.8 6.4 0.00 0.18 0.00 75 1016.5
20260508100617 5 303 4.8 6.4 0.00 0.18 0.00 75 1016.5
20260508100116 5 306 4.8 4.8 0.00 0.18 0.00 75 1016.5
20260508095618 5 314 3.2 3.2 0.00 0.18 0.00 76 1016.4
20260508095115 4 298 3.2 3.2 0.00 0.18 0.00 79 1016.5
20260508094622 3 275 1.6 3.2 0.00 0.18 0.00 83 1016.5
20260508094115 3 251 1.6 1.6 0.00 0.18 0.00 84 1016.5
20260508093614 3 235 3.2 3.2 0.00 0.18 0.00 83 1016.5
20260508093114 3 246 1.6 1.6 0.00 0.18 0.00 84 1016.5
20260508092614 3 247 1.6 1.6 0.00 0.18 0.00 86 1016.6
20260508092113 3 237 1.6 1.6 0.00 0.23 0.00 86 1016.5
20260508091613 3 258 0.0 1.6 0.00 0.23 0.00 85 1016.5
20260508091113 3 238 1.6 1.6 0.00 0.23 0.00 85 1016.5
20260508090612 3 235 1.6 1.6 0.00 0.23 0.00 85 1016.5
20260508090116 3 284 0.0 0.0 0.00 0.23 0.00 85 1016.5
20260508085612 3 279 1.6 1.6 0.00 0.23 0.00 86 1016.4
20260508085111 3 286 1.6 1.6 0.00 0.28 0.00 87 1016.4
20260508084611 3 257 0.0 1.6 0.00 0.28 0.00 87 1016.5
20260508084111 3 254 0.0 1.6 0.00 0.28 0.00 87 1016.3
20260508083610 3 226 1.6 3.2 0.00 0.30 0.00 90 1016.4
20260508083110 3 293 0.0 1.6 0.00 0.30 0.00 89 1016.5
20260508082609 3 278 1.6 3.2 0.00 0.30 0.00 89 1016.5
20260508082109 3 266 1.6 1.6 0.00 0.30 0.00 89 1016.4
20260508081609 3 283 1.6 1.6 0.00 0.30 0.00 88 1016.4
20260508081109 3 291 1.6 1.6 0.00 0.30 0.00 87 1016.3
20260508080608 3 179 0.0 3.2 0.00 0.30 0.00 87 1016.3
20260508080108 3 253 0.0 1.6 0.00 0.30 0.00 86 1016.3
20260508075607 4 344 0.0 1.6 0.00 0.30 0.00 85 1016.3
20260508075107 3 203 0.0 1.6 0.00 0.30 0.00 84 1016.2
20260508074607 3 0 0.0 0.0 0.00 0.30 0.00 87 1016.3
20260508074107 3 231 0.0 1.6 0.00 0.30 0.00 86 1016.3
20260508073606 4 280 0.0 0.0 0.00 0.30 0.00 86 1016.3
20260508073106 4 234 0.0 1.6 0.00 0.30 0.00 86 1016.3
20260508072622 4 313 0.0 1.6 0.00 0.30 0.00 84 1016.2
20260508072106 4 242 3.2 6.4 0.00 0.30 0.00 85 1016.0
20260508071625 4 251 0.0 1.6 0.00 0.30 0.00 85 1016.0
20260508071104 4 323 0.0 1.6 0.00 0.30 0.00 85 1016.0
20260508070624 5 0 0.0 0.0 0.00 0.30 0.00 85 1016.1
20260508070104 5 0 0.0 0.0 0.00 0.30 0.00 84 1016.0
20260508065603 5 0 0.0 0.0 0.00 0.30 0.00 83 1016.2
20260508065103 5 244 3.2 4.8 0.00 0.30 0.00 83 1016.1
20260508064622 5 249 1.6 3.2 0.00 0.30 0.00 85 1016.0
20260508064107 5 237 1.6 3.2 0.00 0.30 0.00 87 1016.0
20260508063601 5 283 0.0 1.6 0.00 0.30 0.00 86 1016.0
20260508063101 5 263 1.6 4.8 0.00 0.30 0.00 86 1016.0
20260508062621 5 299 1.6 1.6 0.00 0.30 0.00 86 1016.1
20260508062100 5 207 0.0 3.2 0.00 0.30 0.00 86 1016.1
20260508061600 5 290 1.6 3.2 0.00 0.30 0.00 87 1016.1
20260508061104 5 216 0.0 1.6 0.00 0.30 0.00 85 1016.2
20260508060559 6 307 0.0 1.6 0.00 0.30 0.00 84 1016.3
20260508060059 6 0 0.0 0.0 0.00 0.30 0.00 83 1016.3
20260508055558 6 187 1.6 3.2 0.00 0.30 0.00 82 1016.2
20260508055058 7 222 0.0 1.6 0.00 0.30 0.00 79 1016.3
20260508054557 7 209 0.0 1.6 0.00 0.30 0.00 77 1016.2
20260508054057 7 202 0.0 0.0 0.00 0.30 0.00 76 1016.2
20260508053557 7 286 3.2 3.2 0.00 0.30 0.00 77 1016.1
20260508053056 7 258 3.2 3.2 0.00 0.30 0.00 76 1016.0
20260508052557 7 247 3.2 3.2 0.00 0.30 0.00 77 1016.0
20260508052055 7 302 1.6 4.8 0.00 0.30 0.00 81 1016.1
20260508051608 7 208 3.2 3.2 0.00 0.30 0.00 79 1015.8
20260508051054 7 231 3.2 3.2 0.00 0.30 0.00 82 1015.8
20260508050604 7 247 1.6 3.2 0.00 0.30 0.00 81 1015.7
20260508050054 7 216 3.2 4.8 0.00 0.30 0.00 81 1015.6
20260508045553 7 271 1.6 3.2 0.00 0.30 0.00 82 1015.6
20260508045100 7 253 1.6 3.2 0.00 0.33 0.00 82 1015.5
20260508044552 7 262 1.6 3.2 0.00 0.33 0.00 81 1015.4
20260508044056 7 213 1.6 3.2 0.00 0.33 0.00 84 1015.4
20260508043557 7 0 0.0 1.6 0.00 0.33 0.00 83 1015.4
20260508043051 7 257 1.6 1.6 0.00 0.33 0.00 81 1015.3
20260508042556 7 277 1.6 3.2 0.00 0.33 0.00 81 1015.4
20260508042058 8 275 0.0 1.6 0.00 0.33 0.00 80 1015.3
20260508041550 8 222 3.2 3.2 0.00 0.33 0.00 78 1015.3
20260508041100 8 217 1.6 3.2 0.00 1.40 0.00 78 1015.3
20260508040610 8 232 0.0 3.2 0.00 1.40 0.00 76 1015.2
20260508040049 9 219 3.2 3.2 0.00 1.47 0.08 74 1015.1
20260508035602 9 207 1.6 4.8 0.00 1.47 0.08 73 1015.1
20260508035056 9 243 1.6 3.2 0.00 1.47 0.08 74 1015.1
20260508034548 9 233 3.2 4.8 0.00 1.47 0.08 73 1015.0
20260508034048 10 243 3.2 4.8 0.00 1.47 0.08 73 1014.9
20260508033548 10 204 1.6 3.2 0.00 1.47 0.08 72 1014.9
20260508033047 10 262 3.2 6.4 0.00 1.47 0.08 71 1014.8
20260508032547 10 279 4.8 6.4 0.00 1.47 0.08 71 1014.9
20260508032046 10 286 6.4 9.7 0.00 1.73 0.08 71 1014.9
20260508031546 10 254 3.2 6.4 0.00 1.73 0.08 71 1014.9
20260508031046 10 267 4.8 6.4 0.00 1.73 0.08 71 1014.9
20260508030545 10 286 4.8 8.0 0.00 1.73 0.08 70 1014.8
20260508030045 10 262 3.2 4.8 0.00 1.75 0.08 70 1014.7
20260508025545 10 274 3.2 6.4 0.00 1.75 0.08 70 1014.6
20260508025044 11 287 4.8 8.0 0.00 1.75 0.08 70 1014.6
20260508024544 11 271 3.2 8.0 0.00 1.75 0.08 69 1014.5
20260508024050 11 288 6.4 8.0 0.00 1.75 0.08 69 1014.4
20260508023603 11 290 6.4 12.9 0.00 1.75 0.08 69 1014.4
20260508023050 11 283 4.8 6.4 0.00 1.75 0.08 69 1014.3
20260508022542 11 301 8.0 11.3 0.00 3.12 0.08 69 1014.3
20260508022042 11 277 3.2 6.4 0.00 3.17 0.08 70 1014.3
20260508021601 11 289 4.8 6.4 0.00 3.17 0.08 69 1014.3
20260508021041 11 294 6.4 9.7 0.00 3.17 0.08 69 1014.0
20260508020540 11 288 4.8 9.7 0.00 3.20 0.08 69 1014.0
20260508020040 11 300 3.2 4.8 0.00 3.20 0.08 69 1013.9
20260508015539 11 290 4.8 8.0 0.00 3.23 0.08 69 1013.9
20260508015039 11 269 6.4 8.0 0.00 4.57 0.08 68 1013.7
20260508014539 11 284 6.4 14.5 0.00 4.65 0.08 68 1013.6
20260508014058 11 282 4.8 9.7 0.00 4.70 0.08 68 1013.5
20260508013558 11 310 6.4 12.9 0.00 5.94 0.08 67 1013.3
20260508013044 11 310 6.4 14.5 0.00 6.05 0.08 67 1013.2
20260508012537 11 305 9.7 16.1 0.00 6.12 0.08 68 1013.1
20260508012057 11 290 6.4 11.3 0.00 6.12 0.08 68 1013.1
20260508011536 11 284 6.4 11.3 0.00 6.17 0.08 67 1013.1
20260508011041 11 269 8.0 12.9 0.00 6.20 0.08 67 1013.0
20260508010535 11 287 3.2 8.0 0.00 6.25 0.08 67 1013.0
20260508010035 11 265 3.2 8.0 0.00 6.27 0.08 68 1013.0
20260508005534 11 299 6.4 9.7 0.00 6.27 0.08 67 1012.9
20260508005035 11 287 6.4 9.7 0.00 6.27 0.08 67 1012.9
20260508004534 11 258 8.0 12.9 0.00 6.27 0.08 67 1012.9
20260508004034 11 285 4.8 8.0 0.00 6.27 0.08 67 1012.9
20260508003547 12 313 4.8 9.7 0.00 6.27 0.08 67 1012.9
20260508003033 12 270 4.8 9.7 0.00 6.27 0.08 67 1012.9
20260508002532 12 290 9.7 17.7 0.00 6.27 0.08 67 1012.9
20260508002032 12 318 8.0 14.5 0.00 6.27 0.08 67 1012.9
20260508001532 12 289 8.0 9.7 0.00 6.27 0.08 66 1013.0
20260508001051 12 290 8.0 12.9 0.00 6.27 0.08 65 1012.9
20260508000531 12 281 8.0 12.9 0.00 6.27 0.08 65 1012.8
20260508000050 12 278 8.0 16.1 0.00 6.27 0.08 65 1012.5
20260507235550 12 299 3.2 6.4 0.00 6.27 0.08 64 1012.7
20260507235042 12 316 8.0 14.5 0.00 6.27 0.08 64 1012.5
20260507234549 13 278 8.0 12.9 0.00 6.27 0.08 63 1012.5
20260507234049 13 274 3.2 6.4 0.00 6.27 0.08 63 1012.7
20260507233548 13 288 6.4 11.3 0.00 6.27 0.08 61 1012.5
20260507233048 13 285 11.3 14.5 0.00 6.27 0.08 60 1012.4
20260507232545 13 262 6.4 12.9 0.00 6.27 0.08 59 1012.4
20260507232047 13 296 12.9 17.7 0.00 6.27 0.08 59 1012.4
20260507231527 14 293 14.5 24.1 0.00 6.27 0.08 59 1012.2
20260507231026 14 284 3.2 6.4 0.00 6.27 0.08 60 1012.3
20260507230526 14 299 6.4 9.7 0.00 6.27 0.08 59 1012.3
20260507230029 14 301 11.3 17.7 0.00 6.27 0.08 59 1012.1
20260507225525 14 306 6.4 9.7 0.00 6.27 0.08 60 1012.1
20260507225024 14 277 12.9 17.7 0.00 6.27 0.08 60 1012.0
20260507224524 14 291 11.3 19.3 0.00 6.27 0.08 60 1012.0
20260507224024 14 295 12.9 14.5 0.00 6.27 0.08 59 1012.0
20260507223528 14 325 3.2 9.7 0.00 6.27 0.08 60 1012.1
20260507223043 15 305 8.0 14.5 0.00 6.27 0.08 60 1012.1
20260507222530 15 0 8.0 11.3 0.00 6.27 0.08 60 1011.9
20260507222042 15 291 9.7 17.7 0.00 6.27 0.08 59 1011.9
20260507221542 15 312 9.7 14.5 0.00 6.27 0.08 59 1011.9
20260507221022 15 290 12.9 16.1 0.00 6.27 0.08 59 1011.8
20260507220521 14 324 8.0 14.5 0.00 6.27 0.08 60 1011.8
20260507220021 14 284 12.9 17.7 0.00 6.27 0.08 59 1011.9
20260507215520 15 264 8.0 12.9 0.00 6.27 0.08 60 1011.9
20260507215020 15 291 12.9 17.7 0.00 6.27 0.08 59 1011.8
20260507214540 15 287 6.4 14.5 0.00 6.27 0.08 59 1011.7
20260507214039 15 302 8.0 12.9 0.00 6.27 0.08 60 1011.6
20260507213522 15 312 6.4 14.5 0.00 6.27 0.08 61 1011.8
20260507213023 15 280 8.0 11.3 0.00 6.27 0.08 60 1011.4
20260507212519 15 343 6.4 12.9 0.00 6.27 0.08 61 1011.4
20260507212038 15 298 6.4 14.5 0.00 6.27 0.08 64 1011.2
20260507211537 15 292 9.7 16.1 0.00 6.27 0.08 64 1011.2
20260507211017 14 312 6.4 14.5 0.00 6.27 0.08 66 1011.0
20260507210537 14 313 4.8 11.3 0.00 6.27 0.08 68 1011.3
20260507210036 14 325 6.4 19.3 0.00 6.27 0.08 66 1011.3
20260507205516 14 317 8.0 16.1 0.00 6.27 0.08 65 1011.4
20260507205035 14 311 4.8 9.7 0.00 6.27 0.08 67 1011.4
20260507204535 14 288 11.3 16.1 0.00 6.27 0.08 67 1011.4
20260507204028 15 280 4.8 8.0 0.00 6.27 0.08 67 1011.3
20260507203521 14 331 3.2 8.0 0.00 6.27 0.08 68 1011.4
20260507203035 15 271 9.7 16.1 0.00 6.27 0.08 66 1011.3
20260507202513 15 290 9.7 12.9 0.00 6.27 0.08 68 1011.4
20260507202012 15 28 4.8 9.7 0.00 6.27 0.08 69 1011.1
20260507201532 15 321 4.8 11.3 0.00 6.27 0.08 69 1011.2
20260507201031 15 293 8.0 14.5 0.00 6.27 0.08 69 1011.2
20260507200531 16 285 4.8 11.3 0.00 6.27 0.08 68 1011.0
20260507200030 15 248 6.4 11.3 0.00 6.27 0.08 68 1010.7
20260507195530 15 309 8.0 11.3 0.00 6.27 0.08 69 1010.8
20260507195009 15 309 8.0 11.3 0.00 6.27 0.08 69 1010.8
20260507194516 14 40 4.8 8.0 0.00 6.27 0.08 71 1010.8
20260507194009 13 222 6.4 11.3 0.00 6.27 0.08 71 1010.8
20260507193518 13 264 4.8 6.4 0.00 6.27 0.08 74 1011.2
20260507193008 13 349 3.2 4.8 0.00 6.27 0.08 74 1011.6
20260507192527 13 288 9.7 12.9 0.00 6.27 0.08 73 1011.8
20260507192012 13 357 1.6 4.8 0.00 6.27 0.08 74 1011.8
20260507191508 13 244 4.8 8.0 0.00 6.27 0.08 73 1012.0
20260507191026 13 258 3.2 6.4 0.00 6.27 0.08 73 1012.0
20260507190506 13 2 1.6 6.4 0.00 6.27 0.08 74 1011.9
20260507190019 13 64 1.6 3.2 0.00 6.27 0.08 75 1012.0
20260507185505 13 52 0.0 3.2 0.00 6.27 0.08 75 1012.0
20260507185005 13 269 3.2 6.4 0.00 6.27 0.08 76 1012.2
20260507184504 13 51 3.2 6.4 0.00 6.27 0.08 75 1012.1
20260507184024 12 261 3.2 8.0 0.00 6.27 0.08 76 1012.2
20260507183523 12 325 1.6 3.2 0.00 6.27 0.08 77 1012.4
20260507183005 13 318 6.4 9.7 0.00 6.27 0.08 75 1012.3
20260507182503 13 294 8.0 17.7 0.00 6.27 0.08 76 1012.3
20260507182002 13 35 3.2 4.8 0.00 6.27 0.08 77 1012.2
20260507181502 12 306 3.2 8.0 0.00 6.27 0.08 76 1012.1
20260507181001 12 39 3.2 6.4 0.00 6.27 0.08 76 1012.3
20260507180501 12 43 4.8 8.0 0.00 6.27 0.08 77 1012.3
20260507180006 13 50 6.4 14.5 0.00 6.27 0.08 76 1012.1
20260507175502 13 285 3.2 4.8 0.00 6.27 0.08 76 1012.2
20260507175000 13 24 3.2 8.0 0.00 6.27 0.08 75 1012.2
20260507174459 13 294 1.6 4.8 0.00 6.27 0.08 75 1012.1
20260507174019 13 315 6.4 12.9 0.00 6.27 0.08 73 1011.9
20260507173506 12 42 6.4 9.7 0.00 6.27 0.08 75 1011.7
20260507172958 12 307 8.0 16.1 0.00 6.27 0.08 76 1011.8
20260507172518 12 352 3.2 6.4 0.00 6.27 0.08 79 1012.0
20260507171958 11 16 3.2 6.4 0.00 7.19 0.08 79 1012.3
20260507171517 11 292 9.7 14.5 0.00 7.19 0.08 76 1012.3
20260507170957 11 331 3.2 8.0 0.00 7.19 0.08 78 1012.4
20260507170504 11 39 3.2 6.4 0.00 7.21 0.08 78 1012.2
20260507165956 11 325 3.2 6.4 0.00 7.21 0.08 79 1012.4
20260507165516 11 13 3.2 6.4 0.00 7.21 0.08 79 1012.5
20260507164955 11 304 11.3 16.1 0.00 7.21 0.08 78 1012.7
20260507164515 11 301 9.7 14.5 0.00 7.21 0.08 79 1012.7
20260507163955 11 315 4.8 9.7 0.00 7.21 0.08 80 1012.5
20260507163454 11 300 9.7 12.9 0.00 7.24 0.08 79 1012.4
20260507162954 11 328 6.4 9.7 0.00 7.24 0.08 80 1012.4
20260507162453 11 23 3.2 6.4 0.00 7.24 0.08 82 1012.5
20260507161953 11 298 1.6 4.8 0.00 7.26 0.08 82 1012.5
20260507161453 10 10 1.6 3.2 0.00 7.26 0.08 81 1012.8
20260507160952 10 40 3.2 6.4 0.00 7.26 0.08 82 1012.5
20260507160452 11 308 8.0 12.9 0.00 7.26 0.08 81 1012.7
20260507160012 10 334 3.2 8.0 0.00 8.15 0.08 82 1012.5
20260507155512 10 299 9.7 11.3 0.00 8.15 0.08 83 1012.7
20260507154958 11 293 11.3 12.9 0.00 9.12 0.08 82 1012.8
20260507154451 11 296 6.4 8.0 0.00 9.12 0.08 83 1013.1
20260507153950 11 341 1.6 3.2 0.00 9.12 0.08 83 1013.1
20260507153450 11 303 3.2 8.0 0.03 9.12 0.08 83 1012.9
20260507152950 11 300 6.4 11.3 0.03 9.12 0.08 83 1013.0
20260507152451 11 40 1.6 3.2 0.03 9.58 0.08 83 1012.8
20260507151948 11 302 6.4 9.7 0.03 9.50 0.10 84 1012.7
20260507151448 11 304 6.4 11.3 0.03 9.50 0.10 85 1012.8
20260507150948 11 302 3.2 6.4 0.03 9.50 0.10 85 1013.0
20260507150447 11 347 3.2 4.8 0.03 9.50 0.10 85 1012.7
20260507145947 11 28 4.8 8.0 0.03 9.68 0.10 86 1012.7
20260507145447 11 4 3.2 4.8 0.03 9.68 0.10 89 1012.7
20260507144947 11 51 1.6 3.2 0.03 9.68 0.08 90 1012.9
20260507144446 10 21 1.6 3.2 0.03 9.68 0.08 90 1012.8
20260507143946 10 14 1.6 1.6 0.00 9.68 0.08 90 1012.7
20260507143505 11 6 1.6 3.2 0.00 9.65 0.05 90 1012.9
20260507143005 11 32 1.6 3.2 0.00 9.65 0.05 87 1013.0
20260507142505 11 237 3.2 4.8 0.00 9.65 0.05 86 1012.7
20260507142004 11 327 3.2 4.8 0.00 9.96 0.05 86 1012.3
20260507141503 11 39 4.8 6.4 0.00 9.96 0.05 87 1012.7
20260507140943 11 40 1.6 3.2 0.00 9.96 0.05 87 1012.4
20260507140443 11 303 4.8 9.7 0.00 10.06 0.05 86 1012.4
20260507135948 11 288 3.2 6.4 0.00 10.36 0.05 87 1012.4
20260507135449 11 352 3.2 6.4 0.00 10.39 0.05 88 1012.4
20260507134942 11 312 6.4 9.7 0.00 10.44 0.05 89 1012.4
20260507134446 11 6 3.2 4.8 0.00 10.44 0.05 89 1012.3
20260507134001 11 34 4.8 6.4 0.00 10.44 0.05 90 1012.3
20260507133500 11 12 3.2 3.2 0.00 10.46 0.05 92 1012.4
20260507132940 11 21 3.2 3.2 0.00 10.49 0.05 93 1012.8
20260507132459 11 13 1.6 3.2 0.00 10.49 0.05 93 1012.7
20260507131939 10 359 0.0 1.6 0.00 10.52 0.05 93 1012.9
20260507131439 11 29 3.2 3.2 0.00 10.52 0.05 93 1012.7
20260507130958 11 343 3.2 4.8 0.00 10.54 0.05 93 1012.9
20260507130438 11 0 3.2 3.2 0.00 10.59 0.05 94 1012.9
20260507125938 11 65 3.2 4.8 0.00 10.59 0.05 94 1012.9
20260507125437 11 48 1.6 3.2 0.00 10.59 0.05 94 1013.1
20260507124938 11 273 1.6 3.2 0.00 10.62 0.05 94 1013.2
20260507124436 11 0 0.0 0.0 0.00 10.62 0.05 94 1013.0
20260507123956 11 350 3.2 4.8 0.00 10.62 0.05 94 1013.0
20260507123436 11 18 1.6 1.6 0.00 10.64 0.05 94 1012.9
20260507122942 11 301 1.6 1.6 0.00 10.67 0.05 94 1012.9
20260507122435 11 80 1.6 3.2 0.00 10.67 0.05 95 1012.8
20260507121934 11 30 1.6 3.2 0.00 10.67 0.05 95 1012.8